DW1779 Weather Reports


time (UTC)temp
C
wind
direction
speed
KPH
gust
KPH
rain 1hr
cm
rain 24hr
cm
rain mn
cm
humidity
%
barometer
mb
20260904111044 20 173 0.0 0.0 0.00 0.00 0.00 96 1016.9
20260904110645 20 173 0.0 0.0 0.00 0.00 0.00 96 1016.8
20260904110049 20 173 0.0 0.0 0.00 0.00 0.00 96 1017.0
20260904105548 20 173 0.0 1.6 0.00 0.00 0.00 96 1016.8
20260904105048 20 173 0.0 1.6 0.00 0.00 0.00 96 1017.0
20260904104547 20 173 0.0 1.6 0.00 0.00 0.00 96 1017.0
20260904104048 20 173 0.0 1.6 0.00 0.00 0.00 96 1017.0
20260904103546 20 173 0.0 1.6 0.00 0.00 0.00 96 1017.0
20260904103046 20 173 0.0 0.0 0.00 0.00 0.00 95 1016.9
20260904102545 20 173 0.0 0.0 0.00 0.00 0.00 96 1016.7
20260904102042 20 173 0.0 0.0 0.00 0.00 0.00 96 1016.8
20260904101543 20 173 0.0 1.6 0.00 0.00 0.00 96 1016.8
20260904101044 20 173 0.0 1.6 0.00 0.00 0.00 96 1016.8
20260904100515 20 173 0.0 1.6 0.00 0.00 0.00 96 1016.7
20260904100009 20 173 0.0 0.0 0.00 0.00 0.00 96 1016.6
20260904095508 20 173 0.0 0.0 0.00 0.00 0.00 96 1016.7
20260904095009 20 173 0.0 0.0 0.00 0.00 0.00 96 1016.5
20260904094507 20 173 0.0 1.6 0.00 0.00 0.00 96 1016.4
20260904094003 20 173 0.0 1.6 0.00 0.00 0.00 96 1016.4
20260904093503 20 173 0.0 0.0 0.00 0.00 0.00 96 1016.5
20260904093001 20 173 0.0 0.0 0.00 0.00 0.00 96 1016.6
20260904092559 20 173 0.0 0.0 0.00 0.00 0.00 95 1016.5
20260904092058 20 173 0.0 0.0 0.00 0.00 0.00 95 1016.3
20260904091557 20 173 0.0 0.0 0.00 0.00 0.00 95 1016.2
20260904091056 20 173 0.0 0.0 0.00 0.00 0.00 95 1016.3
20260904090657 20 173 0.0 0.0 0.00 0.00 0.00 95 1016.3
20260904090058 20 173 0.0 0.0 0.00 0.00 0.00 95 1016.2
20260904085557 20 173 0.0 0.0 0.00 0.00 0.00 95 1016.1
20260904085056 20 173 0.0 0.0 0.00 0.00 0.00 95 1016.1
20260904084555 20 173 0.0 0.0 0.00 0.00 0.00 95 1016.0
20260904084055 20 173 0.0 0.0 0.00 0.00 0.00 94 1016.0
20260904083558 21 173 0.0 0.0 0.00 0.00 0.00 95 1015.9
20260904083056 21 173 0.0 1.6 0.00 0.00 0.00 94 1015.8
20260904082553 21 173 0.0 1.6 0.00 0.00 0.00 94 1015.8
20260904082052 21 173 0.0 0.0 0.00 0.00 0.00 94 1015.8
20260904081622 21 173 0.0 0.0 0.00 0.00 0.00 94 1015.8
20260904081052 21 173 0.0 0.0 0.00 0.00 0.00 94 1015.7
20260904080654 21 173 0.0 0.0 0.00 0.00 0.00 94 1015.7
20260904080056 21 173 0.0 0.0 0.00 0.00 0.00 93 1015.6
20260904075553 21 173 0.0 0.0 0.00 0.00 0.00 93 1015.7
20260904075053 21 173 0.0 0.0 0.00 0.00 0.00 93 1015.8
20260904074607 21 173 0.0 0.0 0.00 0.00 0.00 93 1015.8
20260904074053 21 173 0.0 0.0 0.00 0.00 0.00 93 1015.6
20260904073553 21 173 0.0 0.0 0.00 0.00 0.00 93 1015.6
20260904073104 21 173 0.0 0.0 0.00 0.00 0.00 93 1015.7
20260904072552 21 173 0.0 0.0 0.00 0.00 0.00 92 1015.7
20260904072050 21 173 0.0 0.0 0.00 0.00 0.00 92 1015.7
20260904071550 21 173 0.0 0.0 0.00 0.00 0.00 92 1015.7
20260904071049 21 173 0.0 0.0 0.00 0.00 0.00 92 1015.8
20260904070649 22 173 0.0 0.0 0.00 0.00 0.00 92 1015.8
20260904070105 22 173 0.0 0.0 0.00 0.00 0.00 91 1015.9
20260904065549 22 173 0.0 0.0 0.00 0.00 0.00 91 1016.0
20260904065047 22 173 0.0 0.0 0.00 0.00 0.00 91 1016.0
20260904064547 22 173 0.0 0.0 0.00 0.00 0.00 91 1016.0
20260904064047 22 173 0.0 0.0 0.00 0.00 0.00 91 1015.9
20260904063547 22 173 0.0 0.0 0.00 0.00 0.00 90 1015.8
20260904063053 22 173 0.0 0.0 0.00 0.00 0.00 90 1015.9
20260904062545 22 173 0.0 0.0 0.00 0.00 0.00 90 1016.0
20260904062045 22 173 0.0 0.0 0.00 0.00 0.00 90 1015.8
20260904061545 22 173 0.0 0.0 0.00 0.00 0.00 89 1015.9
20260904061045 22 173 0.0 0.0 0.00 0.00 0.00 90 1016.0
20260904060645 22 173 0.0 0.0 0.00 0.00 0.00 90 1016.0
20260904060048 22 173 0.0 0.0 0.00 0.00 0.00 90 1015.9
20260904055547 22 173 0.0 0.0 0.00 0.00 0.00 89 1015.9
20260904055050 22 173 0.0 0.0 0.00 0.00 0.00 89 1015.8
20260904054549 22 173 0.0 0.0 0.00 0.00 0.00 88 1015.9
20260904054046 23 173 0.0 0.0 0.00 0.00 0.00 88 1016.0
20260904053544 23 173 0.0 0.0 0.00 0.00 0.00 88 1016.0
20260904053144 23 173 0.0 1.6 0.00 0.00 0.00 87 1016.0
20260904052543 23 173 0.0 1.6 0.00 0.00 0.00 88 1016.0
20260904052044 23 169 0.0 0.0 0.00 0.00 0.00 88 1016.1
20260904051543 23 169 0.0 0.0 0.00 0.00 0.00 88 1016.0
20260904051042 23 169 0.0 0.0 0.00 0.00 0.00 88 1016.0
20260904050642 23 169 0.0 0.0 0.00 0.00 0.00 88 1016.1
20260904050059 23 169 0.0 0.0 0.00 0.00 0.00 88 1016.0
20260904045558 23 169 0.0 0.0 0.00 0.00 0.00 88 1015.9
20260904045058 23 169 0.0 3.2 0.00 0.00 0.00 87 1015.9
20260904044558 23 169 0.0 4.8 0.00 0.00 0.00 87 1015.9
20260904044100 23 182 0.0 4.8 0.00 0.00 0.00 87 1015.9
20260904043557 23 173 0.0 3.2 0.00 0.00 0.00 87 1015.8
20260904043115 23 148 0.0 8.0 0.00 0.00 0.00 87 1015.9
20260904042557 24 173 1.6 8.0 0.00 0.00 0.00 85 1015.9
20260904042100 24 160 0.0 3.2 0.00 0.00 0.00 84 1015.9
20260904041602 24 201 0.0 1.6 0.00 0.00 0.00 84 1015.8
20260904041056 24 201 0.0 1.6 0.00 0.00 0.00 83 1015.8
20260904040657 25 201 0.0 0.0 0.00 0.00 0.00 83 1015.8
20260904040054 25 201 0.0 0.0 0.00 0.00 0.00 81 1015.8
20260904035553 25 201 0.0 1.6 0.00 0.00 0.00 80 1015.8
20260904035052 25 201 0.0 3.2 0.00 0.00 0.00 79 1015.8
20260904034554 25 128 0.0 9.7 0.00 0.00 0.00 80 1015.8
20260904034053 25 177 1.6 9.7 0.00 0.00 0.00 80 1015.7
20260904033553 25 193 1.6 9.7 0.00 0.00 0.00 81 1015.7
20260904033052 25 186 1.6 4.8 0.00 0.00 0.00 82 1015.8
20260904032552 25 177 1.6 6.4 0.00 0.00 0.00 83 1015.8
20260904032052 25 198 1.6 8.0 0.00 0.00 0.00 83 1015.7
20260904031552 25 178 3.2 8.0 0.00 0.00 0.00 84 1015.7
20260904031052 25 196 1.6 6.4 0.00 0.00 0.00 86 1015.5
20260904030652 25 162 1.6 6.4 0.00 0.00 0.00 87 1015.6
20260904030045 24 162 1.6 8.0 0.00 0.00 0.00 88 1015.7
20260904025544 25 166 0.0 4.8 0.00 0.00 0.00 88 1015.6
20260904025044 25 157 0.0 3.2 0.00 0.00 0.00 88 1015.7
20260904024546 25 150 0.0 3.2 0.00 0.00 0.00 88 1015.6
20260904024043 25 153 0.0 0.0 0.00 0.00 0.00 87 1015.7
20260904023543 25 153 0.0 0.0 0.00 0.00 0.00 86 1015.7
20260904023047 25 154 0.0 0.0 0.00 0.00 0.00 86 1015.5
20260904022543 25 153 0.0 0.0 0.00 0.00 0.00 85 1015.5
20260904022044 25 153 0.0 0.0 0.00 0.00 0.00 85 1015.5
20260904021552 25 153 0.0 0.0 0.00 0.00 0.00 84 1015.5
20260904021044 26 153 0.0 0.0 0.00 0.00 0.00 83 1015.5
20260904020643 26 153 0.0 0.0 0.00 0.00 0.00 83 1015.4
20260904020043 26 153 0.0 0.0 0.00 0.00 0.00 82 1015.4
20260904015541 26 153 0.0 1.6 0.00 0.00 0.00 81 1015.2
20260904015041 26 153 0.0 0.0 0.00 0.00 0.00 80 1015.2
20260904014604 26 153 0.0 0.0 0.00 0.00 0.00 80 1015.1
20260904014042 27 154 0.0 1.6 0.00 0.00 0.00 80 1015.1
20260904013545 27 154 0.0 1.6 0.00 0.00 0.00 79 1015.1
20260904013043 27 162 0.0 1.6 0.00 0.00 0.00 78 1015.0
20260904012541 27 87 0.0 3.2 0.00 0.00 0.00 79 1015.0
20260904012040 27 59 0.0 3.2 0.00 0.00 0.00 77 1014.8
20260904011541 27 163 0.0 3.2 0.00 0.00 0.00 77 1014.9
20260904011042 27 152 0.0 3.2 0.00 0.00 0.00 75 1014.6
20260904010640 27 165 0.0 9.7 0.00 0.00 0.00 75 1014.6
20260904010057 27 149 1.6 9.7 0.00 0.00 0.00 76 1014.6
20260904005555 27 123 0.0 3.2 0.00 0.00 0.00 74 1014.5
20260904005056 28 134 0.0 6.4 0.00 0.00 0.00 72 1014.4
20260904004600 28 140 1.6 6.4 0.00 0.00 0.00 72 1014.4
20260904004056 28 119 1.6 4.8 0.00 0.00 0.00 72 1014.3
20260904003555 28 155 0.0 1.6 0.00 0.00 0.00 72 1014.3
20260904003100 28 155 0.0 3.2 0.00 0.00 0.00 71 1014.3
20260904002555 29 155 0.0 3.2 0.00 0.00 0.00 68 1014.2
20260904002058 30 157 0.0 3.2 0.00 0.00 0.00 66 1014.3
20260904001555 30 148 1.6 4.8 0.00 0.00 0.00 65 1014.2
20260904001055 30 157 1.6 4.8 0.00 0.00 0.00 63 1014.2
20260904000656 31 174 1.6 8.0 0.00 0.00 0.00 63 1014.2
20260904000137 31 162 0.0 8.0 0.00 0.00 0.00 60 1014.2
20260903235552 32 130 1.6 8.0 0.00 0.00 0.00 59 1014.1
20260903235052 32 161 3.2 8.0 0.00 0.00 0.00 57 1014.0
20260903234554 32 112 1.6 12.9 0.00 0.00 0.00 58 1014.1
20260903234054 32 98 3.2 12.9 0.00 0.00 0.00 57 1014.2
20260903233551 32 159 0.0 11.3 0.00 0.00 0.00 55 1014.0
20260903233054 33 157 4.8 17.7 0.00 0.00 0.00 55 1014.0
20260903232551 33 278 8.0 17.7 0.00 0.00 0.00 53 1014.0
20260903232055 33 117 3.2 11.3 0.00 0.00 0.00 54 1014.0
20260903231600 33 200 3.2 14.5 0.00 0.00 0.00 55 1014.0
20260903231052 33 180 4.8 17.7 0.00 0.00 0.00 53 1014.0
20260903230652 33 205 8.0 17.7 0.00 0.00 0.00 52 1014.0
20260903225551 33 157 4.8 14.5 0.00 0.00 0.00 52 1014.0
20260903225049 34 242 3.2 16.1 0.00 0.00 0.00 51 1014.0
20260903224554 35 156 6.4 16.1 0.00 0.00 0.00 49 1014.1
20260903224049 35 228 4.8 12.9 0.00 0.00 0.00 49 1014.1
20260903223549 35 239 3.2 14.5 0.00 0.00 0.00 48 1014.1
20260903223148 35 249 6.4 14.5 0.00 0.00 0.00 47 1014.1
20260903222553 34 161 3.2 14.5 0.00 0.00 0.00 50 1014.2
20260903222048 35 82 3.2 14.5 0.00 0.00 0.00 51 1014.0
20260903221551 35 79 3.2 14.5 0.00 0.00 0.00 48 1014.0
20260903221047 35 152 3.2 14.5 0.00 0.00 0.00 45 1014.0
20260903220646 35 182 6.4 14.5 0.00 0.00 0.00 46 1014.0
20260903220056 35 233 6.4 17.7 0.00 0.00 0.00 47 1014.0
20260903215545 35 95 4.8 17.7 0.00 0.00 0.00 47 1014.1
20260903215046 35 206 6.4 17.7 0.00 0.00 0.00 46 1014.0
20260903214551 35 156 6.4 17.7 0.00 0.00 0.00 46 1014.0
20260903214045 35 186 8.0 14.5 0.00 0.00 0.00 46 1014.1
20260903213544 36 157 6.4 14.5 0.00 0.00 0.00 45 1014.2
20260903213048 36 202 3.2 16.1 0.00 0.00 0.00 45 1014.3
20260903212542 35 151 6.4 16.1 0.00 0.00 0.00 45 1014.3
20260903212042 36 92 4.8 24.1 0.00 0.00 0.00 45 1014.3
20260903211544 35 69 6.4 24.1 0.00 0.00 0.00 46 1014.3
20260903211042 35 98 9.7 19.3 0.00 0.00 0.00 48 1014.3
20260903210642 35 159 8.0 17.7 0.00 0.00 0.00 45 1014.4
20260903210049 36 165 8.0 20.9 0.00 0.00 0.00 45 1014.6
20260903205543 36 187 9.7 20.9 0.00 0.00 0.00 44 1014.4
20260903205044 36 130 4.8 17.7 0.00 0.00 0.00 45 1014.3
20260903204545 36 174 6.4 17.7 0.00 0.00 0.00 45 1014.3
20260903204042 36 182 6.4 17.7 0.00 0.00 0.00 44 1014.4
20260903203545 36 152 4.8 17.7 0.00 0.00 0.00 45 1014.4
20260903203044 36 148 6.4 20.9 0.00 0.00 0.00 44 1014.6
20260903202541 36 146 3.2 19.3 0.00 0.00 0.00 45 1014.4
20260903202041 36 187 3.2 12.9 0.00 0.00 0.00 46 1014.5
20260903201540 36 206 4.8 14.5 0.00 0.00 0.00 45 1014.6
20260903201039 36 105 3.2 14.5 0.00 0.00 0.00 45 1014.7
20260903200504 36 207 4.8 16.1 0.00 0.00 0.00 46 1014.8
20260903200002 36 178 8.0 16.1 0.00 0.00 0.00 45 1014.9
20260903195559 37 184 6.4 14.5 0.00 0.00 0.00 43 1014.8
20260903195058 36 144 3.2 19.3 0.00 0.00 0.00 44 1014.9
20260903194558 36 206 8.0 19.3 0.00 0.00 0.00 46 1015.0
20260903194057 35 178 3.2 12.9 0.00 0.00 0.00 45 1015.1
20260903193557 36 174 4.8 12.9 0.00 0.00 0.00 44 1015.2
20260903193058 36 178 8.0 12.9 0.00 0.00 0.00 45 1015.3
20260903192557 36 158 6.4 19.3 0.00 0.00 0.00 43 1015.4
20260903192055 36 213 6.4 19.3 0.00 0.00 0.00 46 1015.3
20260903191557 36 162 6.4 24.1 0.00 0.00 0.00 46 1015.4
20260903191055 36 137 6.4 12.9 0.00 0.00 0.00 47 1015.3
20260903190655 35 23 1.6 12.9 0.00 0.00 0.00 49 1015.5
20260903185555 36 180 3.2 14.5 0.00 0.00 0.00 46 1015.8
20260903185054 36 244 4.8 19.3 0.00 0.00 0.00 44 1015.8
20260903184554 37 180 6.4 19.3 0.00 0.00 0.00 45 1015.7
20260903184053 37 192 6.4 17.7 0.00 0.00 0.00 45 1015.8
20260903183551 36 55 4.8 16.1 0.00 0.00 0.00 47 1015.8
20260903183054 36 179 6.4 17.7 0.00 0.00 0.00 46 1015.8
20260903182552 35 315 3.2 11.3 0.00 0.00 0.00 50 1016.0
20260903182050 35 315 4.8 12.9 0.00 0.00 0.00 49 1016.0
20260903181552 35 213 3.2 12.9 0.00 0.00 0.00 48 1016.0
20260903181051 35 170 1.6 12.9 0.00 0.00 0.00 55 1016.0
20260903180652 33 340 3.2 6.4 0.00 0.00 0.00 51 1016.0
20260903180053 35 148 1.6 8.0 0.00 0.00 0.00 50 1016.1
20260903175549 35 109 1.6 16.1 0.00 0.00 0.00 49 1016.2
20260903175049 35 142 8.0 16.1 0.00 0.00 0.00 48 1016.2
20260903174548 36 279 6.4 14.5 0.00 0.00 0.00 47 1016.3
20260903174050 35 300 4.8 16.1 0.00 0.00 0.00 50 1016.2
20260903173546 34 168 4.8 16.1 0.00 0.00 0.00 50 1016.5
20260903173050 35 306 4.8 14.5 0.00 0.00 0.00 50 1016.5
20260903172545 35 200 3.2 14.5 0.00 0.00 0.00 50 1016.5
20260903172045 35 137 3.2 17.7 0.00 0.00 0.00 51 1016.6
20260903171544 35 209 6.4 17.7 0.00 0.00 0.00 50 1016.6
20260903171044 35 31 3.2 16.1 0.00 0.00 0.00 48 1016.8
20260903170643 36 203 8.0 16.1 0.00 0.00 0.00 47 1016.8
20260903170059 36 145 3.2 16.1 0.00 0.00 0.00 49 1016.7
20260903165551 35 332 4.8 19.3 0.00 0.00 0.00 49 1016.9
20260903165049 35 246 1.6 19.3 0.00 0.00 0.00 52 1016.9
20260903164551 35 223 3.2 16.1 0.00 0.00 0.00 51 1016.9
20260903164048 35 244 4.8 14.5 0.00 0.00 0.00 51 1016.9
20260903163548 35 195 4.8 12.9 0.00 0.00 0.00 52 1017.0
20260903163100 35 207 4.8 14.5 0.00 0.00 0.00 53 1017.0
20260903162545 34 106 4.8 14.5 0.00 0.00 0.00 55 1017.1
20260903162044 34 63 6.4 16.1 0.00 0.00 0.00 54 1017.1
20260903161544 34 205 3.2 16.1 0.00 0.00 0.00 55 1017.2
20260903161041 34 222 6.4 16.1 0.00 0.00 0.00 55 1017.2
20260903160510 34 171 3.2 16.1 0.00 0.00 0.00 55 1017.2
20260903160009 33 189 3.2 14.5 0.00 0.00 0.00 56 1017.2
20260903155506 33 214 4.8 22.5 0.00 0.00 0.00 56 1017.3
20260903155005 33 207 6.4 22.5 0.00 0.00 0.00 56 1017.3
20260903154504 33 311 4.8 11.3 0.00 0.00 0.00 56 1017.4
20260903154004 33 186 3.2 12.9 0.00 0.00 0.00 56 1017.4
20260903153502 33 274 3.2 8.0 0.00 0.00 0.00 58 1017.4
20260903153100 33 269 1.6 12.9 0.00 0.00 0.00 59 1017.5
20260903152558 32 175 3.2 17.7 0.00 0.00 0.00 61 1017.5
20260903152057 32 211 6.4 17.7 0.00 0.00 0.00 59 1017.5
20260903151556 32 184 3.2 8.0 0.00 0.00 0.00 60 1017.6
20260903151055 32 302 3.2 8.0 0.00 0.00 0.00 61 1017.5
20260903150504 31 239 3.2 9.7 0.00 0.00 0.00 62 1017.5
20260903150005 32 213 1.6 14.5 0.00 0.00 0.00 62 1017.4
20260903145501 31 303 3.2 14.5 0.00 0.00 0.00 65 1017.6
20260903145059 31 98 1.6 12.9 0.00 0.00 0.00 64 1017.6
20260903144602 31 220 3.2 12.9 0.00 0.00 0.00 66 1017.6
20260903144059 31 217 3.2 12.9 0.00 0.00 0.00 66 1017.7
20260903143555 31 165 3.2 6.4 0.00 0.00 0.00 66 1017.7
20260903143059 30 196 1.6 14.5 0.00 0.00 0.00 69 1017.8
20260903142553 30 264 4.8 14.5 0.00 0.00 0.00 69 1017.8
20260903142056 30 327 1.6 6.4 0.00 0.00 0.00 70 1017.7
20260903141556 30 182 3.2 9.7 0.00 0.00 0.00 70 1017.8
20260903141049 29 275 3.2 9.7 0.00 0.00 0.00 72 1017.8
20260903140648 29 79 1.6 11.3 0.00 0.00 0.00 73 1017.7
20260903140052 28 255 1.6 12.9 0.00 0.00 0.00 75 1017.8
20260903135549 27 231 3.2 12.9 0.00 0.00 0.00 78 1017.8
20260903135048 26 270 1.6 8.0 0.00 0.00 0.00 83 1017.9
20260903134546 26 188 1.6 6.4 0.00 0.00 0.00 85 1017.8
20260903134049 25 196 1.6 8.0 0.00 0.00 0.00 87 1017.8
20260903133544 24 185 1.6 8.0 0.00 0.00 0.00 89 1017.9
20260903133043 23 171 1.6 4.8 0.00 0.00 0.00 90 1017.9
20260903132542 23 175 0.0 4.8 0.00 0.00 0.00 92 1018.0
20260903132042 23 203 0.0 3.2 0.00 0.00 0.00 92 1017.9
20260903131543 23 203 0.0 3.2 0.00 0.00 0.00 93 1017.9
20260903131042 22 155 0.0 1.6 0.00 0.00 0.00 93 1017.8
20260903130642 22 155 0.0 1.6 0.00 0.00 0.00 93 1017.8
20260903130048 22 155 0.0 0.0 0.00 0.00 0.00 94 1017.7
20260903125546 22 155 0.0 0.0 0.00 0.00 0.00 94 1017.8
20260903125045 22 155 0.0 1.6 0.00 0.00 0.00 94 1017.8
20260903124553 21 155 0.0 1.6 0.00 0.00 0.00 94 1017.7
20260903124044 21 155 0.0 0.0 0.00 0.00 0.00 94 1017.7
20260903123544 21 155 0.0 0.0 0.00 0.00 0.00 94 1017.7
20260903123044 21 155 0.0 0.0 0.00 0.00 0.00 95 1017.6
20260903122545 21 155 0.0 1.6 0.00 0.00 0.00 95 1017.7
20260903122042 21 155 0.0 1.6 0.00 0.00 0.00 95 1017.7
20260903121544 21 155 0.0 0.0 0.00 0.00 0.00 95 1017.7
20260903121040 21 155 0.0 0.0 0.00 0.00 0.00 95 1017.7
20260903120503 21 155 0.0 0.0 0.00 0.00 0.00 95 1017.6
20260903120003 20 155 0.0 1.6 0.00 0.00 0.00 95 1017.5
20260903115500 20 154 0.0 1.6 0.00 0.00 0.00 95 1017.6
20260903115100 20 161 0.0 1.6 0.00 0.00 0.00 95 1017.6
20260903114618 20 161 0.0 1.6 0.00 0.00 0.00 95 1017.6
20260903114058 20 161 0.0 0.0 0.00 0.00 0.00 95 1017.6
20260903113558 20 161 0.0 1.6 0.00 0.00 0.00 95 1017.5
20260903113104 21 161 0.0 1.6 0.00 0.00 0.00 94 1017.4
20260903112558 21 161 0.0 1.6 0.00 0.00 0.00 94 1017.4
20260903112056 21 161 0.0 1.6 0.00 0.00 0.00 94 1017.3
20260903111616 21 161 0.0 0.0 0.00 0.00 0.00 94 1017.4